Date String (YYYY-MM-DD hh:mm:ss) UTC,Instrument flags,Ambient pressure (hPa),Sample flow (lpm),Bypass flow (lpm),Sample temperature (°C),Ambient temperature (°C),ASC tube jacket temperature (°C),LED temperature (°C),Box temperature (°C),Sample RH (%),Span deviation,Mass concentration (μg/m³),Mass concentration (μg/m³),Mass concentration (μg/m³)
DateTimeUTC,F1_M11,P_M11,Q1_M11,Q2_M11,T1_M11,T2_M11,T3_M11,T4_M11,T5_M11,U1_M11,ZSPAN_M11,X0_M11,X2_M11,X1_M11
2022-08-13 01:00:00,,0828.8,4.99,0.00,29.2,27.4,00.0,37.9,31.0,28.5,0000.0,0012.43,0004.77,0003.66
2022-08-13 01:01:00,,0828.7,5.01,0.00,29.2,27.6,00.0,37.9,31.0,28.6,0000.0,0013.41,0004.77,0003.66
2022-08-13 01:02:00,,0828.7,5.00,0.00,29.2,27.9,00.0,37.9,31.2,28.7,0000.0,0014.21,0004.79,0003.66
2022-08-13 01:03:00,,0828.7,5.00,0.00,29.3,28.1,00.0,38.0,31.3,28.3,0000.0,0014.31,0004.77,0003.66
2022-08-13 01:04:00,,0828.7,5.00,0.00,29.3,28.2,00.0,38.0,31.3,28.4,0000.0,0014.38,0004.78,0003.66
2022-08-13 01:05:00,,0828.8,5.00,0.00,29.3,27.7,00.0,37.9,31.1,28.4,0000.0,0014.57,0004.78,0003.66
2022-08-13 01:06:00,,0829.1,5.01,0.00,29.2,27.3,00.0,37.9,30.9,28.3,0000.0,0015.43,0004.79,0003.66
2022-08-13 01:07:00,,0828.9,4.99,0.00,29.2,27.2,00.0,37.9,30.9,28.4,0000.0,0016.64,0004.85,0003.66
2022-08-13 01:08:00,,0828.7,5.01,0.00,29.1,27.3,00.0,37.9,30.9,28.6,0000.0,0016.89,0004.86,0003.66
2022-08-13 01:09:00,,0828.7,5.00,0.00,29.1,27.5,00.0,37.9,30.9,28.7,0000.0,0016.84,0004.87,0003.67
2022-08-13 01:10:00,,0828.8,5.00,0.00,29.2,27.7,00.0,37.9,31.0,27.6,0000.0,0016.53,0004.85,0003.69
2022-08-13 01:11:00,,0829.0,5.01,0.00,29.2,27.9,00.0,37.9,31.1,27.7,0000.0,0016.63,0004.86,0003.71
2022-08-13 01:12:00,,0829.2,5.00,0.00,29.3,28.1,00.0,37.9,31.3,27.1,0000.0,0015.54,0004.89,0003.73
2022-08-13 01:13:00,,0829.2,5.00,0.00,29.3,28.3,00.0,38.0,31.3,27.1,0000.0,0014.94,0004.93,0003.75
2022-08-13 01:14:00,,0829.1,5.00,0.00,29.4,28.2,00.0,38.0,31.3,27.0,0000.0,0014.04,0004.92,0003.78
2022-08-13 01:15:00,,0829.1,5.01,0.00,29.3,27.6,00.0,37.9,31.0,27.7,0000.0,0015.01,0004.95,0003.79
2022-08-13 01:16:00,,0828.8,5.00,0.00,29.2,27.3,00.0,37.9,31.0,28.2,0000.0,0015.09,0004.99,0003.81
2022-08-13 01:17:00,,0828.9,4.99,0.00,29.2,27.3,00.0,37.9,30.9,28.6,0000.0,0014.23,0004.97,0003.83
2022-08-13 01:18:00,,0828.8,5.01,0.00,29.1,27.4,00.0,37.9,30.9,28.3,0000.0,0013.17,0004.94,0003.85
2022-08-13 01:19:00,,0828.7,4.99,0.00,29.2,27.6,00.0,37.9,31.0,28.5,0000.0,0013.77,0004.95,0003.87
2022-08-13 01:20:00,,0828.8,5.01,0.00,29.2,27.8,00.0,37.9,31.1,28.5,0000.0,0014.38,0004.99,0003.87
2022-08-13 01:21:00,,0828.9,4.99,0.00,29.2,28.0,00.0,38.0,31.2,28.3,0000.0,0014.95,0005.05,0003.88
2022-08-13 01:22:00,,0829.1,4.99,0.00,29.3,28.2,00.0,38.0,31.3,27.8,0000.0,0015.08,0005.09,0003.87
2022-08-13 01:23:00,,0829.2,5.00,0.00,29.4,28.1,00.0,38.0,31.3,27.7,0000.0,0016.11,0005.05,0003.85
2022-08-13 01:24:00,,0829.1,4.99,0.00,29.3,27.5,00.0,38.0,31.1,27.4,0000.0,0017.76,0004.99,0003.85
2022-08-13 01:25:00,,0829.2,5.01,0.00,29.2,27.2,00.0,37.9,31.0,27.7,0000.0,0018.25,0005.01,0003.84
2022-08-13 01:26:00,,0829.2,5.01,0.00,29.2,27.2,00.0,37.9,30.9,27.9,0000.0,0017.23,0004.99,0003.83
2022-08-13 01:27:00,,0829.0,4.99,0.00,29.1,27.3,00.0,37.9,30.9,27.9,0000.0,0016.34,0004.95,0003.84
2022-08-13 01:28:00,,0828.7,5.01,0.00,29.2,27.5,00.0,37.9,31.0,28.7,0000.0,0015.88,0004.92,0003.83
2022-08-13 01:29:00,,0828.7,5.00,0.00,29.2,27.7,00.0,37.9,31.1,28.5,0000.0,0016.65,0004.94,0003.83
2022-08-13 01:30:00,,0828.7,5.00,0.00,29.2,28.0,00.0,38.0,31.2,27.7,0000.0,0016.52,0004.94,0003.83
2022-08-13 01:31:00,,0828.9,5.00,0.00,29.3,28.2,00.0,38.0,31.3,28.2,0000.0,0016.02,0004.94,0003.83
2022-08-13 01:32:00,,0829.1,4.99,0.00,29.4,28.2,00.0,38.0,31.3,27.8,0000.0,0016.80,0004.94,0003.82
2022-08-13 01:33:00,,0829.0,5.01,0.00,29.3,27.6,00.0,37.9,31.0,27.9,0000.0,0018.03,0004.89,0003.82
2022-08-13 01:34:00,,0829.3,5.00,0.00,29.2,27.2,00.0,37.9,31.0,27.8,0000.0,0017.25,0004.90,0003.84
2022-08-13 01:35:00,,0829.3,4.99,0.00,29.2,27.1,00.0,37.9,30.9,27.9,0000.0,0016.08,0004.96,0003.84
2022-08-13 01:36:00,,0829.1,5.02,0.00,29.1,27.3,00.0,37.9,30.9,27.7,0000.0,0015.54,0004.98,0003.85
2022-08-13 01:37:00,,0829.3,4.99,0.00,29.1,27.5,00.0,37.9,31.0,27.6,0000.0,0015.78,0005.02,0003.84
2022-08-13 01:38:00,,0828.7,4.99,0.00,29.2,27.7,00.0,37.9,31.1,27.7,0000.0,0016.52,0005.04,0003.84
2022-08-13 01:39:00,,0828.7,4.99,0.00,29.2,27.9,00.0,37.9,31.1,27.5,0000.0,0018.54,0005.12,0003.85
2022-08-13 01:40:00,,0828.8,5.00,0.00,29.3,28.1,00.0,38.0,31.2,27.4,0000.0,0018.79,0005.10,0003.85
2022-08-13 01:41:00,,0829.4,5.00,0.00,29.3,28.3,00.0,38.0,31.3,27.3,0000.0,0018.46,0005.08,0003.82
2022-08-13 01:42:00,,0829.2,5.02,0.00,29.3,28.0,00.0,38.0,31.2,27.3,0000.0,0018.33,0005.01,0003.81
2022-08-13 01:43:00,,0829.3,4.99,0.00,29.2,27.3,00.0,37.9,30.9,27.2,0000.0,0016.80,0004.95,0003.80
2022-08-13 01:44:00,,0829.4,5.00,0.00,29.2,27.1,00.0,37.9,30.9,27.1,0000.0,0015.10,0004.99,0003.81
2022-08-13 01:45:00,,0829.0,5.00,0.00,29.1,27.1,00.0,37.9,30.9,27.1,0000.0,0014.73,0005.01,0003.80
2022-08-13 01:46:00,,0828.8,4.99,0.00,29.1,27.3,00.0,37.9,30.9,27.2,0000.0,0014.84,0005.00,0003.79
2022-08-13 01:47:00,,0828.9,5.01,0.00,29.1,27.5,00.0,37.9,31.0,27.2,0000.0,0015.10,0004.98,0003.78
2022-08-13 01:48:00,,0828.8,5.01,0.00,29.2,27.7,00.0,37.9,31.0,27.9,0000.0,0014.90,0004.90,0003.76
2022-08-13 01:49:00,,0828.9,4.99,0.00,29.2,27.9,00.0,37.9,31.2,27.5,0000.0,0014.24,0004.87,0003.75
2022-08-13 01:50:00,,0828.9,4.99,0.00,29.3,28.1,00.0,38.0,31.2,28.0,0000.0,0013.32,0004.86,0003.74
2022-08-13 01:51:00,,0828.9,4.99,0.00,29.3,28.2,00.0,38.0,31.3,27.8,0000.0,0013.19,0004.84,0003.74
2022-08-13 01:52:00,,0828.9,5.01,0.00,29.3,27.6,00.0,38.0,31.1,28.0,0000.0,0013.93,0004.82,0003.76
2022-08-13 01:53:00,,0828.9,4.99,0.00,29.2,27.2,00.0,37.9,31.0,27.6,0000.0,0014.88,0004.89,0003.77
2022-08-13 01:54:00,,0828.9,5.01,0.00,29.2,27.0,00.0,37.9,30.9,27.0,0000.0,0015.27,0004.97,0003.78
2022-08-13 01:55:00,,0828.9,4.99,0.00,29.1,27.1,00.0,37.9,30.8,26.9,0000.0,0015.46,0004.96,0003.77
2022-08-13 01:56:00,,0829.0,5.00,0.00,29.1,27.3,00.0,37.9,30.9,26.9,0000.0,0016.29,0004.94,0003.78
2022-08-13 01:57:00,,0829.0,5.00,0.00,29.1,27.5,00.0,37.9,30.9,26.8,0000.0,0015.66,0004.91,0003.78
2022-08-13 01:58:00,,0829.0,5.00,0.00,29.1,27.8,00.0,37.9,31.0,26.6,0000.0,0015.78,0004.89,0003.78
2022-08-13 01:59:00,,0829.1,5.00,0.00,29.2,28.0,00.0,37.9,31.1,26.5,0000.0,0016.68,0004.91,0003.79
